Time,TemperatureF,DewpointF,PressureIn,WindDirection,WindDirectionDegrees,WindSpeedMPH,WindSpeedGustMPH,Humidity,HourlyPrecipIn,Conditions,Clouds,dailyrainin,SoftwareType,DateUTC
2013-09-16 00:06:00,63.7,58.0,30.09,ENE,75,0.0,0.0,82,0.00,,,0.00,weatherlink.com 1.10,2013-09-16 05:06:00,
2013-09-16 00:21:00,63.5,58.0,30.10,ENE,75,0.0,0.0,82,0.00,,,0.00,weatherlink.com 1.10,2013-09-16 05:21:00,
2013-09-16 00:36:00,63.6,58.0,30.10,ENE,75,0.0,0.0,82,0.00,,,0.00,weatherlink.com 1.10,2013-09-16 05:36:00,
2013-09-16 00:51:00,63.4,58.0,30.10,ENE,75,0.0,0.0,83,0.00,,,0.00,weatherlink.com 1.10,2013-09-16 05:51:00,
2013-09-16 01:06:00,63.1,58.0,30.10,ENE,75,0.0,0.0,84,0.00,,,0.00,weatherlink.com 1.10,2013-09-16 06:06:00,
2013-09-16 01:21:00,62.8,58.0,30.10,ENE,75,0.0,0.0,84,0.00,,,0.00,weatherlink.com 1.10,2013-09-16 06:21:00,
2013-09-16 01:36:00,62.6,58.0,30.10,ENE,75,0.0,0.0,85,0.00,,,0.00,weatherlink.com 1.10,2013-09-16 06:36:00,
2013-09-16 01:51:00,62.4,58.0,30.10,ENE,75,0.0,0.0,86,0.00,,,0.00,weatherlink.com 1.10,2013-09-16 06:51:00,
2013-09-16 02:06:00,61.8,58.0,30.10,ENE,75,0.0,0.0,87,0.00,,,0.00,weatherlink.com 1.10,2013-09-16 07:06:00,
2013-09-16 02:21:00,61.8,58.0,30.09,ENE,75,0.0,0.0,87,0.00,,,0.00,weatherlink.com 1.10,2013-09-16 07:21:00,
2013-09-16 02:36:00,61.5,58.0,30.09,ENE,75,0.0,0.0,88,0.00,,,0.00,weatherlink.com 1.10,2013-09-16 07:36:00,
2013-09-16 02:51:00,61.3,58.0,30.09,ENE,75,0.0,0.0,88,0.00,,,0.00,weatherlink.com 1.10,2013-09-16 07:51:00,
2013-09-16 03:06:00,61.1,58.0,30.09,ENE,75,0.0,0.0,88,0.00,,,0.00,weatherlink.com 1.10,2013-09-16 08:06:00,
2013-09-16 03:21:00,61.0,58.0,30.09,ENE,75,0.0,0.0,88,0.00,,,0.00,weatherlink.com 1.10,2013-09-16 08:21:00,
2013-09-16 03:36:00,60.9,57.0,30.09,ENE,75,0.0,0.0,88,0.00,,,0.00,weatherlink.com 1.10,2013-09-16 08:36:00,
2013-09-16 03:51:00,61.0,58.0,30.09,ENE,75,0.0,0.0,88,0.00,,,0.00,weatherlink.com 1.10,2013-09-16 08:51:00,
2013-09-16 04:06:00,60.8,57.0,30.09,ENE,75,0.0,0.0,88,0.00,,,0.00,weatherlink.com 1.10,2013-09-16 09:06:00,
2013-09-16 04:21:00,60.6,57.0,30.09,ENE,75,0.0,0.0,88,0.00,,,0.00,weatherlink.com 1.10,2013-09-16 09:21:00,
2013-09-16 04:36:00,60.6,57.0,30.09,ENE,75,0.0,0.0,89,0.00,,,0.00,weatherlink.com 1.10,2013-09-16 09:36:00,
2013-09-16 04:51:00,60.8,58.0,30.09,ENE,75,0.0,1.0,89,0.00,,,0.00,weatherlink.com 1.10,2013-09-16 09:51:00,
2013-09-16 05:06:00,60.8,57.0,30.09,ENE,75,0.0,0.0,88,0.00,,,0.00,weatherlink.com 1.10,2013-09-16 10:06:00,
2013-09-16 05:22:00,60.7,57.0,30.09,ENE,75,0.0,0.0,88,0.00,,,0.00,weatherlink.com 1.10,2013-09-16 10:22:00,
2013-09-16 05:37:00,60.6,57.0,30.10,ENE,75,0.0,0.0,88,0.00,,,0.00,weatherlink.com 1.10,2013-09-16 10:37:00,
2013-09-16 05:52:00,60.6,57.0,30.11,ENE,75,0.0,0.0,88,0.00,,,0.00,weatherlink.com 1.10,2013-09-16 10:52:00,
2013-09-16 06:07:00,60.3,57.0,30.11,ENE,75,0.0,0.0,89,0.00,,,0.00,weatherlink.com 1.10,2013-09-16 11:07:00,
2013-09-16 06:22:00,60.1,57.0,30.11,ENE,75,0.0,0.0,89,0.00,,,0.00,weatherlink.com 1.10,2013-09-16 11:22:00,
2013-09-16 06:37:00,59.9,57.0,30.12,ENE,75,0.0,0.0,90,0.00,,,0.00,weatherlink.com 1.10,2013-09-16 11:37:00,
2013-09-16 06:52:00,60.1,58.0,30.13,ENE,75,0.0,0.0,91,0.00,,,0.00,weatherlink.com 1.10,2013-09-16 11:52:00,
2013-09-16 07:07:00,60.0,57.0,30.14,ENE,75,0.0,0.0,90,0.00,,,0.00,weatherlink.com 1.10,2013-09-16 12:07:00,
2013-09-16 07:22:00,60.3,58.0,30.14,ENE,75,0.0,0.0,91,0.00,,,0.00,weatherlink.com 1.10,2013-09-16 12:22:00,
2013-09-16 07:37:00,60.5,58.0,30.14,ENE,75,0.0,0.0,90,0.00,,,0.00,weatherlink.com 1.10,2013-09-16 12:37:00,
2013-09-16 07:52:00,61.7,58.0,30.15,ENE,75,0.0,0.0,88,0.00,,,0.00,weatherlink.com 1.10,2013-09-16 12:52:00,
2013-09-16 08:07:00,63.1,59.0,30.15,ENE,75,0.0,0.0,86,0.00,,,0.00,weatherlink.com 1.10,2013-09-16 13:07:00,
2013-09-16 08:22:00,64.6,60.0,30.15,ENE,75,0.0,0.0,84,0.00,,,0.00,weatherlink.com 1.10,2013-09-16 13:22:00,
2013-09-16 08:37:00,66.0,60.0,30.15,ENE,75,0.0,0.0,81,0.00,,,0.00,weatherlink.com 1.10,2013-09-16 13:37:00,
2013-09-16 08:52:00,67.5,61.0,30.15,ENE,75,0.0,0.0,79,0.00,,,0.00,weatherlink.com 1.10,2013-09-16 13:52:00,
2013-09-16 09:07:00,69.6,61.0,30.16,NE,51,0.0,0.0,74,0.00,,,0.00,weatherlink.com 1.10,2013-09-16 14:07:00,
2013-09-16 09:22:00,71.4,62.0,30.16,NE,51,0.0,0.0,72,0.00,,,0.00,weatherlink.com 1.10,2013-09-16 14:22:00,
2013-09-16 09:37:00,74.2,61.0,30.16,NE,51,0.0,0.0,64,0.00,,,0.00,weatherlink.com 1.10,2013-09-16 14:37:00,
2013-09-16 09:52:00,75.3,62.0,30.16,East,89,0.0,0.0,63,0.00,,,0.00,weatherlink.com 1.10,2013-09-16 14:52:00,
2013-09-16 10:07:00,76.3,63.0,30.16,East,88,0.0,0.0,64,0.00,,,0.00,weatherlink.com 1.10,2013-09-16 15:07:00,
2013-09-16 10:22:00,77.8,63.0,30.16,East,94,0.0,0.0,60,0.00,,,0.00,weatherlink.com 1.10,2013-09-16 15:22:00,
2013-09-16 10:37:00,79.8,63.0,30.16,NE,48,0.0,0.0,57,0.00,,,0.00,weatherlink.com 1.10,2013-09-16 15:37:00,
2013-09-16 10:53:00,81.3,62.0,30.16,East,80,0.0,2.0,53,0.00,,,0.00,weatherlink.com 1.10,2013-09-16 15:53:00,
2013-09-16 11:08:00,82.6,63.0,30.15,WSW,255,0.0,2.0,51,0.00,,,0.00,weatherlink.com 1.10,2013-09-16 16:08:00,
2013-09-16 11:23:00,83.8,62.0,30.15,WSW,243,0.0,4.0,48,0.00,,,0.00,weatherlink.com 1.10,2013-09-16 16:23:00,
2013-09-16 11:38:00,84.9,62.0,30.15,West,264,0.0,3.0,46,0.00,,,0.00,weatherlink.com 1.10,2013-09-16 16:38:00,
2013-09-16 11:53:00,86.0,60.0,30.15,ENE,70,1.0,2.0,42,0.00,,,0.00,weatherlink.com 1.10,2013-09-16 16:53:00,
2013-09-16 12:08:00,87.0,62.0,30.15,ESE,108,0.0,2.0,43,0.00,,,0.00,weatherlink.com 1.10,2013-09-16 17:08:00,
2013-09-16 12:23:00,86.7,62.0,30.15,East,91,1.0,4.0,43,0.00,,,0.00,weatherlink.com 1.10,2013-09-16 17:23:00,
2013-09-16 12:53:00,88.7,58.0,30.15,ENE,58,2.0,3.0,35,0.00,,,0.00,weatherlink.com 1.10,2013-09-16 17:53:00,
2013-09-16 13:08:00,89.5,58.0,30.14,ESE,117,1.0,3.0,35,0.00,,,0.00,weatherlink.com 1.10,2013-09-16 18:08:00,
2013-09-16 13:23:00,89.4,57.0,30.14,NNE,18,1.0,2.0,33,0.00,,,0.00,weatherlink.com 1.10,2013-09-16 18:23:00,
2013-09-16 13:38:00,89.5,55.0,30.13,ESE,108,0.0,4.0,31,0.00,,,0.00,weatherlink.com 1.10,2013-09-16 18:38:00,
2013-09-16 13:53:00,89.7,54.0,30.13,ESE,123,1.0,3.0,30,0.00,,,0.00,weatherlink.com 1.10,2013-09-16 18:53:00,
2013-09-16 14:08:00,90.8,54.0,30.12,North,8,0.0,4.0,29,0.00,,,0.00,weatherlink.com 1.10,2013-09-16 19:08:00,
2013-09-16 14:23:00,91.8,54.0,30.12,ENE,61,2.0,2.0,28,0.00,,,0.00,weatherlink.com 1.10,2013-09-16 19:23:00,
2013-09-16 14:38:00,91.7,56.0,30.11,ESE,120,0.0,2.0,30,0.00,,,0.00,weatherlink.com 1.10,2013-09-16 19:38:00,
2013-09-16 14:53:00,91.6,54.0,30.11,ESE,117,0.0,4.0,28,0.00,,,0.00,weatherlink.com 1.10,2013-09-16 19:53:00,
2013-09-16 15:08:00,90.8,52.0,30.11,ESE,102,2.0,5.0,27,0.00,,,0.00,weatherlink.com 1.10,2013-09-16 20:08:00,
2013-09-16 15:23:00,91.7,56.0,30.10,SSE,159,0.0,3.0,30,0.00,,,0.00,weatherlink.com 1.10,2013-09-16 20:23:00,
2013-09-16 15:38:00,90.5,59.0,30.10,North,6,2.0,4.0,34,0.00,,,0.00,weatherlink.com 1.10,2013-09-16 20:38:00,
2013-09-16 15:53:00,90.6,61.0,30.10,NNE,18,1.0,2.0,37,0.00,,,0.00,weatherlink.com 1.10,2013-09-16 20:53:00,
2013-09-16 16:08:00,90.1,60.0,30.10,NE,45,1.0,3.0,37,0.00,,,0.00,weatherlink.com 1.10,2013-09-16 21:08:00,
2013-09-16 16:23:00,89.4,61.0,30.10,SE,142,1.0,4.0,39,0.00,,,0.00,weatherlink.com 1.10,2013-09-16 21:23:00,
2013-09-16 16:38:00,89.6,62.0,30.09,NE,40,2.0,2.0,39,0.00,,,0.00,weatherlink.com 1.10,2013-09-16 21:38:00,
2013-09-16 16:53:00,88.8,63.0,30.09,ENE,75,2.0,2.0,42,0.00,,,0.00,weatherlink.com 1.10,2013-09-16 21:53:00,
2013-09-16 17:08:00,88.2,62.0,30.09,NE,56,2.0,3.0,41,0.00,,,0.00,weatherlink.com 1.10,2013-09-16 22:08:00,
2013-09-16 17:23:00,87.5,61.0,30.09,NE,49,1.0,3.0,41,0.00,,,0.00,weatherlink.com 1.10,2013-09-16 22:23:00,
2013-09-16 17:38:00,86.5,61.0,30.09,East,86,1.0,2.0,42,0.00,,,0.00,weatherlink.com 1.10,2013-09-16 22:38:00,
2013-09-16 17:53:00,86.3,61.0,30.09,NE,40,2.0,3.0,43,0.00,,,0.00,weatherlink.com 1.10,2013-09-16 22:53:00,
2013-09-16 18:08:00,85.6,61.0,30.09,NE,36,0.0,3.0,43,0.00,,,0.00,weatherlink.com 1.10,2013-09-16 23:08:00,
2013-09-16 18:23:00,84.5,60.0,30.09,NNE,27,1.0,2.0,44,0.00,,,0.00,weatherlink.com 1.10,2013-09-16 23:23:00,
2013-09-16 18:38:00,83.5,61.0,30.09,NNE,27,0.0,2.0,47,0.00,,,0.00,weatherlink.com 1.10,2013-09-16 23:38:00,
2013-09-16 18:53:00,82.5,61.0,30.09,NE,44,0.0,2.0,49,0.00,,,0.00,weatherlink.com 1.10,2013-09-16 23:53:00,
2013-09-16 19:08:00,81.6,62.0,30.09,NE,43,0.0,1.0,51,0.00,,,0.00,weatherlink.com 1.10,2013-09-17 00:08:00,
2013-09-16 19:23:00,80.7,62.0,30.09,NE,49,0.0,1.0,54,0.00,,,0.00,weatherlink.com 1.10,2013-09-17 00:23:00,
2013-09-16 19:38:00,80.1,63.0,30.10,NE,47,0.0,1.0,56,0.00,,,0.00,weatherlink.com 1.10,2013-09-17 00:38:00,
2013-09-16 19:53:00,79.6,64.0,30.10,ENE,69,0.0,1.0,59,0.00,,,0.00,weatherlink.com 1.10,2013-09-17 00:53:00,
2013-09-16 20:08:00,79.0,65.0,30.11,ENE,65,0.0,1.0,62,0.00,,,0.00,weatherlink.com 1.10,2013-09-17 01:08:00,
2013-09-16 20:24:00,78.6,66.0,30.11,ENE,74,0.0,1.0,65,0.00,,,0.00,weatherlink.com 1.10,2013-09-17 01:24:00,
2013-09-16 20:39:00,78.2,66.0,30.11,NNE,30,0.0,1.0,67,0.00,,,0.00,weatherlink.com 1.10,2013-09-17 01:39:00,
2013-09-16 20:54:00,77.9,67.0,30.11,NE,54,0.0,1.0,69,0.00,,,0.00,weatherlink.com 1.10,2013-09-17 01:54:00,
2013-09-16 21:09:00,77.4,67.0,30.12,NNE,22,1.0,2.0,71,0.00,,,0.00,weatherlink.com 1.10,2013-09-17 02:09:00,
2013-09-16 21:24:00,76.8,68.0,30.12,East,81,0.0,1.0,73,0.00,,,0.00,weatherlink.com 1.10,2013-09-17 02:24:00,
2013-09-16 21:39:00,76.1,68.0,30.12,NE,51,0.0,2.0,75,0.00,,,0.00,weatherlink.com 1.10,2013-09-17 02:39:00,
2013-09-16 21:54:00,75.5,68.0,30.13,NE,41,1.0,2.0,77,0.00,,,0.00,weatherlink.com 1.10,2013-09-17 02:54:00,
2013-09-16 22:09:00,74.9,68.0,30.13,ENE,68,1.0,4.0,78,0.00,,,0.00,weatherlink.com 1.10,2013-09-17 03:09:00,
2013-09-16 22:24:00,74.4,68.0,30.14,NE,56,1.0,3.0,79,0.00,,,0.00,weatherlink.com 1.10,2013-09-17 03:24:00,
2013-09-16 22:39:00,74.0,68.0,30.14,ENE,74,1.0,1.0,80,0.00,,,0.00,weatherlink.com 1.10,2013-09-17 03:39:00,
2013-09-16 22:54:00,73.6,67.0,30.14,ENE,67,0.0,1.0,80,0.00,,,0.00,weatherlink.com 1.10,2013-09-17 03:54:00,
2013-09-16 23:09:00,73.2,67.0,30.15,East,85,0.0,1.0,81,0.00,,,0.00,weatherlink.com 1.10,2013-09-17 04:09:00,
2013-09-16 23:24:00,72.8,67.0,30.15,NNE,30,1.0,1.0,82,0.00,,,0.00,weatherlink.com 1.10,2013-09-17 04:24:00,
2013-09-16 23:39:00,72.4,67.0,30.15,NE,41,1.0,2.0,83,0.00,,,0.00,weatherlink.com 1.10,2013-09-17 04:39:00,
2013-09-16 23:54:00,72.0,67.0,30.15,ENE,61,1.0,3.0,83,0.00,,,0.00,weatherlink.com 1.10,2013-09-17 04:54:00,